Weather History for Hartford, CT

Change the Weather History Date:

Thursday, June 27, 2013

  Actual Average Record
Temperature  
Mean Temperature 74 °F -  
Max Temperature 81 °F 80 °F 95 °F (1966)
Min Temperature 68 °F 59 °F 49 °F (1940)
Cooling Degree Days 9    
Growing Degree Days 24 (Base 50)    
Moisture  
Dew Point 70 °F    
Average Humidity 87    
Maximum Humidity 100    
Minimum Humidity 70    
Precipitation  
Precipitation 0.31 in - - ()
Sea Level Pressure  
Sea Level Pressure 29.76 in    
Wind  
Wind Speed 3 mph (ESE)    
Max Wind Speed 12 mph    
Max Gust Speed -    
Visibility 8 miles    
Events Rain , Thunderstorm    
Averages and records for this station are not official NWS values.
T = Trace of Precipitation, MM = Missing Value Source: NWS Daily Summary

Daily Weather History Graph

Daily Weather History Graph

Search for Another Location

Airport:

Trip Planner

Search our weather history database for the weather conditions in past years. The results will help you decide how hot, cold, wet, or windy it might be!

Date:

Astronomy

Jun. 27, 2013 Rise Set
Actual Time 5:17 AM EDT 8:29 PM EDT
Civil Twilight 4:43 AM EDT 9:03 PM EDT
Nautical Twilight 3:59 AM EDT 9:47 PM EDT
Astronomical Twilight 3:07 AM EDT 10:40 PM EDT
Moon 11:19 PM EDT (6/27) 10:20 AM EDT (6/27)
Length of Visible Light 16h 19m
Length of Day
15h 11m
Waning Gibbous, 76% of the Moon is Illuminated
Jun 27
Waning Gibbous
Jun 30
Last Quarter
Jul 8
New
Jul 15
First Quarter
Jul 22
Full

Hourly Weather History & Observations

Time (EDT) Temp. Heat Index Dew Point Humidity Pressure Visibility Wind Dir Wind Speed Gust Speed Precip Events Conditions
12:53 AM 73.0 °F - 70.0 °F 90% 29.81 in 10.0 mi Calm Calm - N/A   Clear
1:53 AM 71.1 °F - 69.1 °F 93% 29.81 in 8.0 mi Calm Calm - N/A   Partly Cloudy
2:53 AM 71.1 °F - 69.1 °F 93% 29.78 in 6.0 mi Calm Calm - N/A   Clear
3:53 AM 70.0 °F - 69.1 °F 97% 29.78 in 9.0 mi Calm Calm - N/A   Clear
4:53 AM 69.1 °F - 68.0 °F 96% 29.79 in 7.0 mi South 3.5 mph - N/A   Clear
5:51 AM 68.0 °F - 66.2 °F 94% 29.80 in 2.5 mi Calm Calm - N/A   Mostly Cloudy
5:53 AM 68.0 °F - 66.9 °F 96% 29.81 in 2.0 mi Calm Calm - N/A   Mostly Cloudy
6:00 AM 69.8 °F - 68.0 °F 94% 29.80 in 4.0 mi North 4.6 mph - N/A   Mostly Cloudy
6:19 AM 69.8 °F - 69.8 °F 100% 29.81 in 1.8 mi North 5.8 mph - N/A   Overcast
6:53 AM 70.0 °F - 69.1 °F 97% 29.82 in 2.5 mi NNE 5.8 mph - N/A   Overcast
7:02 AM 69.8 °F - 69.8 °F 100% 29.82 in 4.0 mi NNE 4.6 mph - N/A   Overcast
7:26 AM 69.8 °F - 69.8 °F 100% 29.83 in 5.0 mi North 3.5 mph - N/A   Overcast
7:51 AM 71.6 °F - 68.0 °F 88% 29.82 in 6.0 mi Calm Calm - 0.00 in Rain Light Rain
7:53 AM 71.1 °F - 68.0 °F 90% 29.82 in 6.0 mi Calm Calm - 0.00 in Rain Light Rain
8:15 AM 71.6 °F - 69.8 °F 94% 29.82 in 6.0 mi Calm Calm - 0.01 in Rain Light Rain
8:53 AM 72.0 °F - 69.1 °F 91% 29.81 in 8.0 mi Calm Calm - 0.01 in   Overcast
9:53 AM 72.0 °F - 70.0 °F 93% 29.81 in 7.0 mi Calm Calm - 0.00 in Rain Light Rain
10:17 AM 73.4 °F - 69.8 °F 88% 29.80 in 6.0 mi Variable 3.5 mph - 0.00 in Rain Light Rain
10:53 AM 73.0 °F - 70.0 °F 90% 29.80 in 9.0 mi Calm Calm - 0.00 in Rain Light Rain
11:24 AM 75.2 °F - 69.8 °F 83% 29.80 in 10.0 mi NNE 4.6 mph - 0.00 in   Overcast
11:50 AM 75.2 °F - 71.6 °F 89% 29.79 in 10.0 mi NE 4.6 mph - 0.00 in   Mostly Cloudy
11:53 AM 75.9 °F - 70.0 °F 82% 29.79 in 10.0 mi NE 3.5 mph - 0.00 in   Mostly Cloudy
12:08 PM 77.0 °F - 69.8 °F 78% 29.79 in 10.0 mi East 3.5 mph - N/A   Mostly Cloudy
12:20 PM 77.0 °F - 69.8 °F 78% 29.79 in 10.0 mi NE 3.5 mph - N/A   Overcast
12:53 PM 77.0 °F - 70.0 °F 79% 29.78 in 10.0 mi Calm Calm - N/A   Mostly Cloudy
1:53 PM 79.0 °F - 71.1 °F 77% 29.77 in 10.0 mi East 3.5 mph - N/A   Mostly Cloudy
2:32 PM 80.6 °F 83.9 °F 69.8 °F 70% 29.75 in 10.0 mi ESE 6.9 mph - N/A   Mostly Cloudy
2:53 PM 80.1 °F 83.6 °F 71.1 °F 74% 29.75 in 10.0 mi Calm Calm - N/A   Mostly Cloudy
3:53 PM 80.1 °F 83.6 °F 71.1 °F 74% 29.74 in 10.0 mi East 3.5 mph - N/A   Scattered Clouds
4:21 PM 78.8 °F - 71.6 °F 78% 29.73 in 10.0 mi East 5.8 mph - N/A   Overcast
4:53 PM 77.0 °F - 72.0 °F 84% 29.73 in 3.0 mi SE 3.5 mph - 0.15 in Rain Heavy Rain
5:25 PM 77.0 °F - 71.6 °F 83% 29.72 in 10.0 mi ESE 3.5 mph - 0.00 in   Mostly Cloudy
5:35 PM 77.0 °F - 71.6 °F 83% 29.72 in 10.0 mi SSE 6.9 mph - 0.00 in   Overcast
5:53 PM 77.0 °F - 71.1 °F 82% 29.72 in 10.0 mi SSE 11.5 mph - 0.00 in   Mostly Cloudy
6:03 PM 77.0 °F - 71.6 °F 83% 29.72 in 10.0 mi South 8.1 mph - N/A   Overcast
6:18 PM 75.2 °F - 69.8 °F 83% 29.72 in 10.0 mi South 11.5 mph - N/A   Overcast
6:28 PM 75.2 °F - 71.6 °F 89% 29.72 in 10.0 mi South 8.1 mph - N/A   Overcast
6:53 PM 75.9 °F - 71.1 °F 85% 29.73 in 10.0 mi South 4.6 mph - N/A   Overcast
7:53 PM 75.0 °F - 69.1 °F 82% 29.73 in 10.0 mi SSE 5.8 mph - N/A   Partly Cloudy
8:43 PM 73.4 °F - 69.8 °F 88% 29.71 in 10.0 mi SE 6.9 mph - N/A   Mostly Cloudy
8:53 PM 73.9 °F - 69.1 °F 85% 29.71 in 10.0 mi SSE 6.9 mph - N/A   Overcast
9:53 PM 73.9 °F - 69.1 °F 85% 29.71 in 10.0 mi ESE 4.6 mph - N/A   Overcast
10:53 PM 73.0 °F - 68.0 °F 84% 29.69 in 10.0 mi SSE 4.6 mph - N/A   Overcast
11:20 PM 73.4 °F - 68.0 °F 83% 29.66 in 10.0 mi East 8.1 mph - N/A Thunderstorm Mostly Cloudy
11:33 PM 71.6 °F - 68.0 °F 88% 29.66 in 9.0 mi ESE 6.9 mph - 0.01 in Rain , Thunderstorm Rain
11:38 PM 71.6 °F - 68.0 °F 88% 29.65 in 6.0 mi ESE 8.1 mph - 0.04 in Rain , Thunderstorm Thunderstorms and Rain
11:53 PM 71.1 °F - 68.0 °F 90% 29.68 in 2.5 mi South 9.2 mph - 0.15 in Rain , Thunderstorm Heavy Thunderstorms and Rain
11:57 PM 69.8 °F - 69.8 °F 100% 29.67 in 1.5 mi Variable 3.5 mph - 0.10 in Rain , Thunderstorm Heavy Thunderstorms and Rain